AKST,Max TemperatureF,Mean TemperatureF,Min TemperatureF,Max Dew PointF,MeanDew PointF,Min DewpointF,Max Humidity, Mean Humidity, Min Humidity, Max Sea Level PressureIn, Mean Sea Level PressureIn, Min Sea Level PressureIn, Max VisibilityMiles, Mean VisibilityMiles, Min VisibilityMiles, Max Wind SpeedMPH, Mean Wind SpeedMPH, Max Gust SpeedMPH,PrecipitationIn, CloudCover, Events, WindDirDegrees
2013-1-1,37,30,24,34,28,21,93,81,70,29.47,29.28,29.15,10,10,10,18,10,29,0.00,2,,89
2013-1-2,37,30,23,28,25,19,100,84,70,29.47,29.40,29.23,10,10,10,12,4,18,0.00,5,,103
2013-1-3,37,34,30,32,30,27,93,80,65,29.55,29.48,29.43,10,10,10,21,9,31,0.00,7,,84
2013-1-4,30,22,15,28,23,12,100,92,86,29.80,29.72,29.56,10,10,8,6,1,,0.00,5,,84
2013-1-5,33,28,23,28,25,19,93,82,70,29.69,29.39,29.25,10,10,10,13,4,21,0.00,6,,62
2013-1-6,33,27,21,28,25,19,100,88,74,29.32,29.17,28.98,10,10,6,8,3,,0.00,4,,68
2013-1-7,33,24,15,30,23,12,100,82,69,29.36,29.13,29.00,10,10,10,12,4,,0.00,2,,63
2013-1-8,19,11,3,19,10,-2,100,88,72,29.99,29.70,29.37,10,10,10,7,1,,0.00,4,,68
2013-1-9,17,8,0,16,4,-8,100,88,72,30.08,30.02,29.92,10,10,2,6,3,,0.00,3,,73
2013-1-10,24,20,17,23,20,16,100,91,86,30.14,30.04,29.93,10,7,1,12,1,,0.02,7,,47
2013-1-11,28,26,21,27,24,19,100,93,86,30.13,30.01,29.88,10,8,1,9,3,,0.01,7,,42
2013-1-12,35,29,23,34,28,21,100,93,86,30.10,29.95,29.78,10,8,2,8,1,,0.15,7,,265
2013-1-13,37,35,33,37,34,32,100,98,93,29.86,29.75,29.60,10,5,0,9,3,,0.21,5,,267
2013-1-14,41,36,30,36,31,19,100,83,60,29.96,29.66,29.48,10,8,1,17,6,28,0.04,1,,203
2013-1-15,30,26,21,19,18,14,86,69,55,30.20,30.12,29.96,10,10,10,15,8,25,0.00,3,,192
2013-1-16,24,22,21,21,20,19,93,88,80,30.16,29.91,29.68,10,7,0,8,2,,0.05,8,,49
2013-1-17,21,14,6,19,13,3,100,87,73,29.94,29.72,29.61,10,9,5,5,0,,0.00,7,,257
2013-1-18,14,4,-7,10,1,-15,92,84,71,30.20,30.12,29.94,10,10,8,8,3,,0.00,5,,61
2013-1-19,26,19,12,21,15,9,92,82,74,30.21,30.07,29.88,10,10,2,13,6,22,0.00,8,,56
2013-1-20,30,26,23,28,25,19,100,88,80,29.88,29.84,29.82,10,10,3,13,7,,0.00,6,,47
2013-1-21,33,26,19,28,22,18,100,88,74,29.87,29.76,29.64,10,10,10,10,5,17,0.00,2,,90
2013-1-22,35,32,30,28,27,27,93,77,70,29.65,29.51,29.39,10,10,10,9,6,,0.00,8,,77
2013-1-23,35,30,24,28,25,21,100,84,70,29.39,29.30,29.25,10,10,10,9,5,,0.00,1,,92
2013-1-24,35,27,19,30,25,16,100,86,75,29.49,29.42,29.33,10,10,10,13,6,18,0.00,3,,131
2013-1-25,35,14,-9,30,9,-15,84,67,42,29.65,29.48,29.30,10,10,10,16,9,24,0.00,3,,100
2013-1-26,6,-6,-18,-6,-17,-24,92,76,48,29.90,29.79,29.66,10,10,7,7,2,,0.00,0,,70
2013-1-27,3,-11,-25,-6,-22,-29,100,71,39,30.17,30.05,29.91,10,10,10,9,4,,0.00,0,,60
2013-1-28,8,-8,-25,7,-10,-29,100,76,61,30.19,30.06,29.81,10,8,1,12,5,20,0.01,2,,70
2013-1-29,15,10,6,10,6,3,92,83,79,29.83,29.78,29.73,10,7,1,15,9,22,0.00,4,,53
2013-1-30,28,22,15,28,21,10,100,91,79,29.83,29.70,29.63,10,8,1,10,6,,0.10,6,,59
2013-1-31,30,28,26,30,29,27,100,97,93,29.92,29.82,29.69,10,3,0,0,0,,0.00,4,,-1